Flag for U.S.A. Weather past 2 weeks in San Antonio, Texas, U.S.A.

Now
81 °F

Partly sunny.


Feels Like: 81 °F
Forecast: 72 / 87 °F
Wind: 9 mph from East

Location: San Antonio International Airport

Current Time: Sep 23, 2014 at 11:38:48 AM

Latest Report: Sep 23, 2014 at 10:51 AM


Visibility: 10 mi

Pressure: 30.11 "Hg

Humidity: 47%

Dew point: 59 °F

Location of San AntonioLocation

Historic Weather in San Antonio — Graph

°F

San Antonio temperature yesterday

Maximum temperature yesterday: 93 °F (at 3:51 PM)
Minimum temperature yesterday: 69 °F (at 5:51 AM)
Average temperature yesterday: 82 °F

Past Weeks' High & Low Weather Summary

 TemperatureHumidityPressure
High99 °F (Sep 10, 5:51 PM)94% (Sep 12, 8:51 PM)30.20 "Hg (Sep 12, 8:51 PM)
Low63 °F (Sep 13, 6:51 AM)32% (Sep 10, 5:51 PM)29.73 "Hg (Sep 10, 5:51 PM)
Average81 °F69%29.95 "Hg
* Reported Sep 8 9:51 AM — Sep 23 9:51 AM, San Antonio, Weather by CustomWeather, © 2014

Note: Actual official high and low records may vary slightly from our data, if they occured in-between our weather recording intervals... More about our weather records

Advertising

San Antonio weather history for previous 24 hours

 ConditionsComfort  
Time TempWeatherWind HumidityBarometerVisibility
9:51 AM
Sep 23
78 °FScattered clouds.10 mph54%30.10 "Hg10 mi
8:51 AM74 °FPartly sunny.8 mph69%30.09 "Hg10 mi
7:51 AM72 °FPassing clouds.8 mph76%30.07 "Hg10 mi
6:51 AM73 °FPassing clouds.7 mph76%30.05 "Hg10 mi
5:51 AM74 °FPassing clouds.6 mph76%30.05 "Hg10 mi
4:51 AM74 °FPassing clouds.6 mph79%30.04 "Hg10 mi
3:51 AM75 °FPassing clouds.6 mph79%30.03 "Hg10 mi
2:51 AM77 °FPassing clouds.6 mph74%30.05 "Hg10 mi
1:51 AM78 °FPassing clouds.6 mph74%30.05 "Hg10 mi
12:51 AM78 °FClear.5 mph74%30.04 "Hg10 mi
11:51 PM
Sep 22
80 °FClear.5 mph69%30.05 "Hg10 mi
10:51 PM81 °FClear.6 mph67%30.04 "Hg10 mi
9:51 PM83 °FClear.8 mph61%30.03 "Hg10 mi
8:51 PM85 °FPassing clouds.12 mph55%30.02 "Hg10 mi
7:51 PM87 °FScattered clouds.9 mph46%29.99 "Hg10 mi
6:51 PM90 °FScattered clouds.9 mph39%29.98 "Hg10 mi
5:51 PM92 °FScattered clouds.10 mph37%29.97 "Hg10 mi
4:51 PM93 °FOvercast.12 mph37%29.98 "Hg10 mi
3:51 PM93 °FMore clouds than sun.12 mph36%30.00 "Hg10 mi
2:51 PM92 °FMore clouds than sun.9 mph38%30.02 "Hg10 mi
1:51 PM90 °FPartly sunny.8 mph42%30.04 "Hg10 mi
12:51 PM89 °FPartly sunny.9 mph45%30.07 "Hg10 mi
11:51 AM88 °FPartly sunny.10 mph46%30.09 "Hg10 mi
Weather by CustomWeather, © 2014

See weather overviewHow to use our weather pages